Location: Quedlinburg
(51.7921°N, 11.1414°E)
Time: 09:53:37
(UTC+02:00)

RS-44 - Pass Details

Date: 24 March 2026
Orbit: 1175 x 1510 km, 82.5° (Epoch: 17 April)

Event Time Altitude Azimuth Distance (km) Brightness Sun altitude
Rises 03:55:35 0° 343° (NNW) 4,490 ? -20.4°
Reaches altitude 10° 03:59:13 10° 329° (NNW) 3,559 ? -20.0°
Maximum altitude 04:05:01 21° 286° (WNW) 2,861 ? -19.2°
Enters shadow 04:06:21 20° 274° (W) 2,913 ? -19.0°
